Weather History for K40B - May, 2014

Change the Weather History Date:

Monday, May 19, 2014

  Actual Average Record
Temperature  
Mean Temperature 48 °F -  
Max Temperature 53 °F 59 °F 82 °F (2003)
Min Temperature 45 °F 35 °F 28 °F (1997)
Degree Days  
Heating Degree Days 16    
Moisture  
Dew Point 45 °F    
Average Humidity 87    
Maximum Humidity 95    
Minimum Humidity 73    
Precipitation  
Precipitation 0.05 in - - ()
Sea Level Pressure  
Sea Level Pressure 30.04 in    
Wind  
Wind Speed 2 mph (North)    
Max Wind Speed 7 mph    
Max Gust Speed 16 mph    
Averages and records for this station are not official NWS values.
T = Trace of Precipitation, MM = Missing Value Source: NWS Daily Summary

Daily Weather History Graph

Daily Weather History Graph

Search for Another Location

Airport or City:

Trip Planner

Search our weather history database for the weather conditions in past years. The results will help you decide how hot, cold, wet, or windy it might be!

Date:

Astronomy

May. 19, 2014 Rise Set
Actual Time 4:59 AM EDT 8:10 PM EDT
Civil Twilight 4:23 AM EDT 8:46 PM EDT
Nautical Twilight 3:36 AM EDT 9:34 PM EDT
Astronomical Twilight 2:38 AM EDT 10:32 PM EDT
Moon No Moon Rise 9:58 AM EDT (5/19)
Length of Visible Light 16h 23m
Length of Day
15h 10m
Waning Gibbous, 71% of the Moon is Illuminated
May 19
Waning Gibbous
May 21
Last Quarter
May 28
New
Jun 5
First Quarter
Jun 13
Full

Hourly Weather History & Observations

Time (EDT) Temp. Windchill Dew Point Humidity Pressure Visibility Wind Dir Wind Speed Gust Speed Precip Events Conditions
12:16 AM 48.4 °F - 42.8 °F 81% 30.03 in - Calm Calm - 0.01 in   Unknown
1:16 AM 46.9 °F - 43.9 °F 89% 30.03 in - Calm Calm - N/A   Unknown
2:16 AM 45.9 °F - 44.6 °F 95% 30.02 in - Calm Calm - N/A   Unknown
3:16 AM 45.9 °F - 44.1 °F 93% 30.02 in - Variable 2.3 mph - N/A   Unknown
4:16 AM 45.3 °F - 43.3 °F 93% 30.03 in - Calm Calm - N/A   Unknown
5:16 AM 45.1 °F - 43.0 °F 92% 30.03 in - Calm Calm - 0.00 in   Unknown
6:16 AM 45.5 °F 44.2 °F 42.8 °F 90% 30.04 in - Variable 3.5 mph - 0.01 in   Unknown
7:16 AM 46.9 °F - 43.7 °F 88% 30.04 in - Calm Calm - 0.00 in   Unknown
8:16 AM 47.1 °F - 44.6 °F 91% 30.05 in - Variable 3.5 mph - N/A   Unknown
11:16 AM 50.0 °F - 45.3 °F 84% 30.05 in - Variable 3.5 mph 13.8 mph 0.01 in   Unknown
12:16 PM 52.2 °F - 43.9 °F 73% 30.04 in - Variable 5.8 mph 13.8 mph N/A   Unknown
1:16 PM 51.6 °F - 43.2 °F 73% 30.04 in - Variable 6.9 mph 15.0 mph N/A   Unknown
2:16 PM 51.1 °F - 43.5 °F 75% 30.04 in - Variable 4.6 mph 12.7 mph N/A   Unknown
3:16 PM 51.4 °F - 43.9 °F 75% 30.04 in - Variable 4.6 mph 16.1 mph N/A   Unknown
4:16 PM 50.0 °F - 46.2 °F 87% 30.04 in - Variable 3.5 mph - N/A   Unknown
5:16 PM 49.1 °F - 47.5 °F 94% 30.05 in - Variable 2.3 mph - 0.02 in   Unknown
6:16 PM 49.5 °F - 46.8 °F 90% 30.05 in - Variable 5.8 mph - 0.01 in   Unknown
7:16 PM 49.1 °F - 46.4 °F 90% 30.06 in - Variable 4.6 mph - N/A   Unknown
8:16 PM 48.7 °F - 45.9 °F 90% 30.07 in - Variable 6.9 mph 13.8 mph N/A   Unknown
9:16 PM 48.4 °F - 44.8 °F 87% 30.07 in - Variable 5.8 mph - N/A   Unknown
10:16 PM 47.8 °F - 45.0 °F 90% 30.06 in - Variable 3.5 mph - N/A   Unknown
11:16 PM 47.7 °F - 45.1 °F 91% 30.06 in - Variable 4.6 mph - N/A   Unknown